Погода в Осипсоле

Россия / Республика Марий Эл     56°25′09″N   48°44′02″E
темп.,
°C
ветер,
м/с
пор.,
м/с
влажн.,
%
обл.,
%
осадки,
мм/ч
давл.,
гПа
погр.,
м
17 мая, пн
пн1700:00+16юз238991 0.0 101543
03:00+15зсз11945 0.1 101611
06:00+18вюв228015 1.3 1017150
09:00+24з2259100 1.3 1017703
12:00+27з2446100 0.0 10171410
15:00+28сз244282 0.0 10161834
18:00+22ссв356991 0.4 1017146
21:00+18св22806 1.0 101822
18 мая, вт
вт1800:00+16всв22867 0.6 101829
03:00+15всв35878 0.9 101872
06:00+17в388162 0.0 1019230
09:00+23в45527 0.0 1019619
12:00+27вюв334197 0.0 10191260
15:00+27вюв334014 0.0 10181584
18:00+24в35569 0.0 1018214
21:00+18всв310655 0.0 1019188
19 мая, ср
ср1900:00+16в3107013 0.0 1019180
03:00+15вюв4127356 0.0 1020283
06:00+17вюв4107053 0.0 1020295
09:00+22вюв57515 0.0 1020756
12:00+25вюв56407 0.0 10191240
15:00+25юв563942 0.0 10191456
18:00+22вюв48515 0.0 1018529
21:00+17в412685 0.0 1019260
20 мая, чт
чт2000:00+16вюв412650 0.0 1018287
03:00+14юв312740 0.0 1019239
06:00+18ююв412640 0.0 1019433
09:00+22ююв69425 0.0 1019903
12:00+24ююв69345 0.0 10191304
15:00+24ююв68367 0.0 10191608
18:00+22ююв49495 0.0 1018685
21:00+16юв39700 0.0 1019165
21 мая, пт
пт2100:00+14ююв3107229 0.0 1018182
03:00+13ююв39716 0.0 1019165
06:00+16ююв410621 0.0 1019279
09:00+22ю58460 0.0 1018773
12:00+24ююз69435 0.0 10181990
15:00+23юз610535 0.0 10181611
18:00+21юз4858100 0.0 1019770
21:00+15зюз228457 0.0 102031